• In Czech Republic
  • List of Countries
  • For 7 days
  • Water Temperature
  • Satellite Maps
  • Weather Map
  • Weather Widgets
  • user-avatar
    Login

    Hourly Weather Yulara

    Today, 24 June, Sunday

    Time Temperature Precipitation Wind Pressure Humidity
    00:00 +8°C° 0 mm 4 mps 724 mmHg 45%
    01:00 +8°C° 0 mm 4 mps 724 mmHg 47%
    02:00 +7°C° 0 mm 4 mps 724 mmHg 49%
    03:00 +7°C° 0 mm 4 mps 724 mmHg 50%
    04:00 +7°C° 0 mm 4 mps 724 mmHg 51%
    05:00 +6°C° 0 mm 4 mps 724 mmHg 53%
    06:00 +7°C° 0 mm 3 mps 724 mmHg 54%
    07:00 +7°C° 0 mm 4 mps 725 mmHg 49%
    08:00 +10°C° 0 mm 4 mps 725 mmHg 44%
    09:00 +12°C° 0 mm 4 mps 725 mmHg 38%
    10:00 +13°C° 0 mm 5 mps 725 mmHg 34%
    11:00 +15°C° 0 mm 6 mps 724 mmHg 30%
    12:00 +16°C° 0 mm 6 mps 724 mmHg 26%
    13:00 +17°C° 0 mm 6 mps 724 mmHg 24%
    14:00 +17°C° 0 mm 6 mps 723 mmHg 22%
    15:00 +19°C° 0 mm 6 mps 723 mmHg 20%
    16:00 +16°C° 0 mm 5 mps 723 mmHg 22%
    17:00 +14°C° 0 mm 5 mps 723 mmHg 24%
    18:00 +13°C° 0 mm 4 mps 723 mmHg 26%
    19:00 +12°C° 0 mm 4 mps 723 mmHg 27%
    20:00 +11°C° 0 mm 4 mps 724 mmHg 29%
    21:00 +10°C° 0 mm 4 mps 724 mmHg 32%
    22:00 +10°C° 0 mm 4 mps 724 mmHg 34%
    23:00 +8°C° 0 mm 4 mps 724 mmHg 36%

    Tomorrow, 25 June, Monday

    Time Temperature Precipitation Wind Pressure Humidity
    00:00 +8°C° 0 mm 4 mps 724 mmHg 37%
    01:00 +7°C° 0 mm 4 mps 724 mmHg 39%
    02:00 +7°C° 0 mm 4 mps 724 mmHg 41%
    03:00 +7°C° 0 mm 4 mps 724 mmHg 43%
    04:00 +6°C° 0 mm 4 mps 724 mmHg 45%
    05:00 +6°C° 0 mm 4 mps 725 mmHg 46%
    06:00 +6°C° 0 mm 4 mps 725 mmHg 48%
    07:00 +7°C° 0 mm 5 mps 725 mmHg 45%
    08:00 +9°C° 0 mm 5 mps 725 mmHg 42%
    09:00 +11°C° 0 mm 6 mps 725 mmHg 38%
    10:00 +13°C° 0 mm 6 mps 725 mmHg 35%
    11:00 +15°C° 0 mm 6 mps 725 mmHg 32%
    12:00 +17°C° 0 mm 5 mps 724 mmHg 29%
    13:00 +17°C° 0 mm 5 mps 724 mmHg 27%
    14:00 +17°C° 0 mm 5 mps 723 mmHg 25%
    15:00 +19°C° 0 mm 5 mps 723 mmHg 23%
    16:00 +16°C° 0 mm 5 mps 723 mmHg 26%
    17:00 +15°C° 0 mm 4 mps 723 mmHg 29%
    18:00 +13°C° 0 mm 4 mps 723 mmHg 31%
    19:00 +13°C° 0 mm 4 mps 724 mmHg 34%
    20:00 +12°C° 0 mm 4 mps 724 mmHg 36%
    21:00 +10°C° 0 mm 5 mps 725 mmHg 38%
    22:00 +9°C° 0 mm 5 mps 725 mmHg 41%
    23:00 +10°C° 0 mm 4 mps 725 mmHg 43%

    Day after tomorrow, 26 June, Tuesday

    Time Temperature Precipitation Wind Pressure Humidity
    00:00 +8°C° 0 mm 4 mps 725 mmHg 45%
    01:00 +8°C° 0 mm 4 mps 725 mmHg 48%
    02:00 +7°C° 0 mm 4 mps 725 mmHg 51%
    03:00 +6°C° 0 mm 4 mps 725 mmHg 54%
    04:00 +6°C° 0 mm 4 mps 725 mmHg 56%
    05:00 +5°C° 0 mm 4 mps 725 mmHg 58%
    06:00 +5°C° 0 mm 4 mps 725 mmHg 61%
    07:00 +6°C° 0 mm 4 mps 726 mmHg 54%
    08:00 +8°C° 0 mm 5 mps 726 mmHg 48%
    09:00 +9°C° 0 mm 5 mps 726 mmHg 42%
    10:00 +12°C° 0 mm 5 mps 726 mmHg 37%
    11:00 +14°C° 0 mm 6 mps 726 mmHg 32%
    12:00 +16°C° 0 mm 6 mps 725 mmHg 26%
    13:00 +17°C° 0 mm 6 mps 725 mmHg 24%
    14:00 +17°C° 0 mm 6 mps 724 mmHg 21%
    15:00 +19°C° 0 mm 5 mps 724 mmHg 19%
    16:00 +16°C° 0 mm 5 mps 724 mmHg 21%
    17:00 +14°C° 0 mm 5 mps 724 mmHg 23%
    18:00 +13°C° 0 mm 4 mps 724 mmHg 26%
    19:00 +12°C° 0 mm 4 mps 725 mmHg 29%
    20:00 +10°C° 0 mm 5 mps 725 mmHg 31%
    21:00 +9°C° 0 mm 5 mps 725 mmHg 34%
    22:00 +8°C° 0 mm 5 mps 725 mmHg 39%
    23:00 +8°C° 0 mm 5 mps 725 mmHg 43%

    27 June, Wednesday

    Time Temperature Precipitation Wind Pressure Humidity
    00:00 +7°C° 0 mm 5 mps 726 mmHg 47%
    01:00 +7°C° 0 mm 4 mps 725 mmHg 51%
    02:00 +6°C° 0 mm 4 mps 725 mmHg 55%
    03:00 +6°C° 0 mm 4 mps 725 mmHg 59%
    04:00 +5°C° 0 mm 4 mps 725 mmHg 62%
    05:00 +5°C° 0 mm 4 mps 725 mmHg 65%
    06:00 +5°C° 0 mm 4 mps 725 mmHg 67%
    07:00 +6°C° 0 mm 5 mps 725 mmHg 62%
    08:00 +7°C° 0 mm 5 mps 726 mmHg 57%
    09:00 +9°C° 0 mm 6 mps 726 mmHg 51%
    10:00 +11°C° 0 mm 6 mps 725 mmHg 44%
    11:00 +14°C° 0 mm 6 mps 725 mmHg 38%
    12:00 +16°C° 0 mm 6 mps 725 mmHg 31%
    13:00 +16°C° 0 mm 5 mps 724 mmHg 28%
    14:00 +17°C° 0 mm 5 mps 723 mmHg 25%
    15:00 +19°C° 0 mm 4 mps 722 mmHg 22%
    16:00 +17°C° 0 mm 4 mps 722 mmHg 25%
    17:00 +14°C° 0 mm 3 mps 722 mmHg 27%
    18:00 +13°C° 0 mm 3 mps 722 mmHg 30%
    19:00 +12°C° 0 mm 3 mps 723 mmHg 32%
    20:00 +11°C° 0 mm 3 mps 723 mmHg 34%
    21:00 +10°C° 0 mm 3 mps 723 mmHg 36%
    22:00 +10°C° 0 mm 3 mps 723 mmHg 39%
    23:00 +9°C° 0 mm 3 mps 723 mmHg 41%

    28 June, Thursday

    Time Temperature Precipitation Wind Pressure Humidity
    00:00 +9°C° 0 mm 3 mps 723 mmHg 44%
    01:00 +8°C° 0 mm 3 mps 723 mmHg 46%
    02:00 +7°C° 0 mm 3 mps 723 mmHg 49%
    03:00 +7°C° 0 mm 3 mps 722 mmHg 52%
    04:00 +5°C° 0 mm 3 mps 722 mmHg 54%
    05:00 +5°C° 0 mm 3 mps 722 mmHg 57%
    06:00 +5°C° 0 mm 2 mps 722 mmHg 59%
    07:00 +7°C° 0 mm 2 mps 723 mmHg 54%
    08:00 +8°C° 0 mm 2 mps 723 mmHg 49%
    09:00 +10°C° 0 mm 2 mps 724 mmHg 43%
    10:00 +13°C° 0 mm 2 mps 723 mmHg 38%
    11:00 +15°C° 0 mm 2 mps 723 mmHg 33%
    12:00 +17°C° 0 mm 2 mps 722 mmHg 28%
    13:00 +18°C° 0 mm 1 mps 722 mmHg 25%
    14:00 +19°C° 0 mm 1 mps 721 mmHg 23%
    15:00 +18°C° 0 mm 0 mps 720 mmHg 21%
    16:00 +16°C° 0 mm 0 mps 720 mmHg 24%
    17:00 +15°C° 0 mm 1 mps 720 mmHg 28%
    18:00 +12°C° 0 mm 1 mps 720 mmHg 32%
    19:00 +12°C° 0 mm 1 mps 720 mmHg 32%
    20:00 +12°C° 0 mm 2 mps 721 mmHg 32%
    21:00 +12°C° 0 mm 2 mps 721 mmHg 32%
    22:00 +10°C° 0 mm 2 mps 721 mmHg 34%
    23:00 +9°C° 0 mm 2 mps 721 mmHg 35%

    29 June, Friday

    Time Temperature Precipitation Wind Pressure Humidity
    00:00 +9°C° 0 mm 2 mps 721 mmHg 36%
    01:00 +8°C° 0 mm 2 mps 721 mmHg 37%
    02:00 +8°C° 0 mm 2 mps 721 mmHg 39%
    03:00 +7°C° 0 mm 2 mps 720 mmHg 41%
    04:00 +7°C° 0 mm 2 mps 720 mmHg 43%
    05:00 +6°C° 0 mm 2 mps 721 mmHg 45%
    06:00 +6°C° 0 mm 2 mps 721 mmHg 48%
    07:00 +8°C° 0 mm 2 mps 721 mmHg 42%
    08:00 +10°C° 0 mm 2 mps 722 mmHg 37%
    09:00 +13°C° 0 mm 2 mps 723 mmHg 31%
    10:00 +15°C° 0 mm 2 mps 723 mmHg 28%
    11:00 +16°C° 0 mm 2 mps 722 mmHg 25%
    12:00 +18°C° 0 mm 2 mps 722 mmHg 21%
    13:00 +19°C° 0 mm 2 mps 722 mmHg 20%
    14:00 +20°C° 0 mm 2 mps 721 mmHg 19%
    15:00 +20°C° 0 mm 3 mps 721 mmHg 17%
    16:00 +19°C° 0 mm 3 mps 721 mmHg 20%
    17:00 +17°C° 0 mm 3 mps 721 mmHg 22%
    18:00 +14°C° 0 mm 3 mps 721 mmHg 24%
    19:00 +14°C° 0 mm 4 mps 722 mmHg 27%
    20:00 +13°C° 0 mm 4 mps 722 mmHg 29%
    21:00 +12°C° 0 mm 4 mps 723 mmHg 31%
    22:00 +12°C° 0 mm 5 mps 723 mmHg 37%
    23:00 +10°C° 0 mm 5 mps 723 mmHg 42%
    Show more